Location: Zagreb
(45.8000°N, 16.0000°E)
Time: 00:09:00
(UTC+02:00)

SR - All Passes

Search period start: 12 August 2020 00:00
Search period end: 22 August 2020 00:00
Orbit: 584 x 871 km, 66.7° (Epoch: 11 August)

Date Brightness Start Highest point End Pass type
(mag) Time Alt. Az. Time Alt. Az. Time Alt. Az.
12 Aug - 06:11:52 10° NNW 06:16:02 45° NE 06:20:23 10° SE daylight
12 Aug - 07:54:23 10° WNW 07:57:47 22° WSW 08:01:19 10° SSW daylight
12 Aug - 20:46:07 10° SSE 20:48:58 17° ESE 20:51:45 10° ENE visible
12 Aug - 22:26:05 10° SW 22:30:34 60° NW 22:34:52 10° NNE visible
13 Aug - 00:11:54 10° NW 00:13:28 12° NNW 00:15:02 10° NNW visible
13 Aug - 05:22:32 10° NNW 05:26:07 25° NE 05:29:50 10° E visible
13 Aug - 07:04:08 10° NW 07:08:18 45° WSW 07:12:41 10° S daylight
13 Aug - 21:36:21 10° SSW 21:40:53 66° ESE 21:45:11 10° NE visible
13 Aug - 23:20:06 10° W 23:23:17 19° NW 23:26:24 10° N visible
14 Aug - 04:33:31 10° N 04:36:02 15° NE 04:38:35 10° ENE visible
14 Aug - 06:14:19 10° NNW 06:18:40 86° NE 06:23:17 10° SSE daylight
14 Aug - 07:58:41 10° W 08:00:05 11° WSW 08:01:29 10° SW daylight
14 Aug - 20:47:18 10° S 20:51:19 31° ESE 20:55:11 10° NE visible
14 Aug - 22:29:14 10° WSW 22:33:17 33° NW 22:37:12 10° NNE visible
15 Aug - 05:24:46 10° NNW 05:28:54 43° NE 05:33:15 10° ESE visible
15 Aug - 07:07:11 10° WNW 07:10:42 24° WSW 07:14:24 10° SSW daylight
15 Aug - 19:59:17 10° SE 20:01:55 15° ESE 20:04:28 10° ENE daylight
15 Aug - 21:38:58 10° SW 21:43:28 64° NW 21:47:45 10° NNE visible
15 Aug - 23:24:33 10° WNW 23:26:19 12° NW 23:28:04 10° N visible
16 Aug - 04:35:27 10° N 04:38:59 24° NE 04:42:38 10° E visible
16 Aug - 06:16:59 10° NW 06:21:12 49° WSW 06:25:40 10° SSE daylight
16 Aug - 20:49:18 10° SSW 20:53:46 62° ESE 20:58:03 10° NE visible
16 Aug - 22:32:53 10° W 22:36:09 20° NW 22:39:20 10° N visible
17 Aug - 03:46:29 10° N 03:48:52 14° NE 03:51:19 10° ENE visible
17 Aug - 05:27:11 10° NNW 05:31:34 80° NE 05:36:11 10° SE visible
17 Aug - 07:11:11 10° W 07:13:01 12° WSW 07:14:53 10° SW daylight
17 Aug - 20:00:19 10° S 20:04:15 29° ESE 20:08:00 10° NE daylight
17 Aug - 21:42:04 10° WSW 21:46:09 35° NW 21:50:07 10° NNE visible
18 Aug - 04:37:40 10° NNW 04:41:47 40° NE 04:46:06 10° ESE visible
18 Aug - 06:19:58 10° WNW 06:23:38 26° WSW 06:27:27 10° SSW daylight
18 Aug - 19:12:28 10° SE 19:14:50 14° ESE 19:17:09 10° ENE daylight
18 Aug - 20:51:51 10° SW 20:56:20 69° NW 21:00:38 10° NNE visible
18 Aug - 22:37:12 10° WNW 22:39:09 13° NW 22:41:05 10° N visible
19 Aug - 03:48:22 10° N 03:51:51 23° NE 03:55:26 10° E visible
19 Aug - 05:29:50 10° NW 05:34:06 53° WSW 05:38:38 10° SSE visible
19 Aug - 20:02:15 10° SSW 20:06:41 57° ESE 20:10:55 10° NE daylight
19 Aug - 21:45:39 10° W 21:49:00 21° NW 21:52:17 10° N visible
20 Aug - 02:59:27 10° N 03:01:44 14° NE 03:04:02 10° ENE visible
20 Aug - 04:40:05 10° NNW 04:44:27 75° NE 04:49:05 10° SE visible
20 Aug - 06:23:47 10° WNW 06:25:56 13° WSW 06:28:10 10° SW daylight
20 Aug - 19:13:21 10° S 19:17:09 27° ESE 19:20:48 10° NE daylight
20 Aug - 20:54:54 10° WSW 20:59:02 37° NW 21:03:01 10° NNE visible
21 Aug - 03:50:34 10° NNW 03:54:40 38° NE 03:58:57 10° ESE visible
21 Aug - 05:32:47 10° NW 05:36:33 27° WSW 05:40:29 10° S visible
21 Aug - 18:25:42 10° SE 18:27:46 13° ESE 18:29:47 10° E daylight
21 Aug - 20:04:45 10° SW 20:09:14 73° NW 20:13:32 10° NNE daylight
21 Aug - 21:49:53 10° WNW 21:52:00 13° NW 21:54:05 10° N visible
